Time,TemperatureF,DewpointF,PressureIn,WindDirection,WindDirectionDegrees,WindSpeedMPH,WindSpeedGustMPH,Humidity,HourlyPrecipIn,Conditions,Clouds,dailyrainin,SoftwareType,DateUTC
2013-09-05 15:42:00,85.1,32.2,29.74,SSE,167,17.0,17.0,15,0.00,,,0.00,Wunderground v.1.15,2013-09-05 22:42:00,
2013-09-05 15:56:00,84.9,32.1,29.73,SSW,195,7.0,15.0,15,0.00,,,0.00,Wunderground v.1.15,2013-09-05 22:56:00,
2013-09-05 15:57:00,84.9,32.1,29.73,South,171,4.0,17.0,15,0.00,,,0.00,Wunderground v.1.15,2013-09-05 22:57:00,
2013-09-05 15:59:00,84.9,32.1,29.73,SSE,164,10.0,17.0,15,0.00,,,0.00,Wunderground v.1.15,2013-09-05 22:59:00,
2013-09-05 16:04:00,85.3,32.4,29.73,SSW,192,10.0,22.0,15,0.00,,,0.00,Wunderground v.1.15,2013-09-05 23:04:00,
2013-09-05 16:10:00,85.3,32.4,29.73,SE,145,10.0,12.0,15,0.00,,,0.00,Wunderground v.1.15,2013-09-05 23:10:00,
2013-09-05 16:15:00,85.3,32.4,29.73,SSE,152,10.0,24.0,15,0.00,,,0.00,Wunderground v.1.15,2013-09-05 23:15:00,
2013-09-05 16:20:00,85.3,32.4,29.73,SE,145,17.0,17.0,15,0.00,,,0.00,Wunderground v.1.15,2013-09-05 23:20:00,
2013-09-05 16:25:00,85.1,32.2,29.73,SSE,152,17.0,23.0,15,0.00,,,0.00,Wunderground v.1.15,2013-09-05 23:25:00,
2013-09-05 16:30:00,84.9,30.4,29.73,South,179,20.0,20.0,14,0.00,,,0.00,Wunderground v.1.15,2013-09-05 23:30:00,
2013-09-05 16:35:00,84.7,31.9,29.73,SSE,157,9.0,21.0,15,0.00,,,0.00,Wunderground v.1.15,2013-09-05 23:35:00,
2013-09-05 16:40:00,84.9,32.1,29.73,SSE,164,16.0,16.0,15,0.00,,,0.00,Wunderground v.1.15,2013-09-05 23:40:00,
2013-09-05 16:45:00,84.7,31.9,29.73,SE,145,9.0,23.0,15,0.00,,,0.00,Wunderground v.1.15,2013-09-05 23:45:00,
2013-09-05 16:50:00,84.5,31.8,29.73,SSE,161,11.0,13.0,15,0.00,,,0.00,Wunderground v.1.15,2013-09-05 23:50:00,
2013-09-05 16:55:00,84.7,31.9,29.73,SE,144,11.0,17.0,15,0.00,,,0.00,Wunderground v.1.15,2013-09-05 23:55:00,
2013-09-05 17:00:00,84.3,31.6,29.73,SE,138,7.0,14.0,15,0.00,,,0.00,Wunderground v.1.15,2013-09-06 00:00:00,
2013-09-05 17:05:00,84.3,31.6,29.73,SSE,167,10.0,20.0,15,0.00,,,0.00,Wunderground v.1.15,2013-09-06 00:05:00,
2013-09-05 17:10:00,84.1,31.4,29.73,SSE,162,13.0,17.0,15,0.00,,,0.00,Wunderground v.1.15,2013-09-06 00:10:00,
2013-09-05 17:15:00,84.0,31.4,29.74,SSE,162,15.0,23.0,15,0.00,,,0.00,Wunderground v.1.15,2013-09-06 00:15:00,
2013-09-05 17:20:00,83.6,31.0,29.74,SSE,165,15.0,21.0,15,0.00,,,0.00,Wunderground v.1.15,2013-09-06 00:20:00,
2013-09-05 17:25:00,83.4,34.0,29.74,South,174,13.0,22.0,17,0.00,,,0.00,Wunderground v.1.15,2013-09-06 00:25:00,
2013-09-05 17:30:00,83.2,32.3,29.75,SSE,164,9.0,16.0,16,0.00,,,0.00,Wunderground v.1.15,2013-09-06 00:30:00,
2013-09-05 17:35:00,83.2,30.7,29.75,SSE,161,14.0,17.0,15,0.00,,,0.00,Wunderground v.1.15,2013-09-06 00:35:00,
2013-09-05 17:40:00,83.2,30.7,29.75,SE,144,10.0,13.0,15,0.00,,,0.00,Wunderground v.1.15,2013-09-06 00:40:00,
2013-09-05 17:45:00,83.0,32.2,29.74,SE,136,15.0,20.0,16,0.00,,,0.00,Wunderground v.1.15,2013-09-06 00:45:00,
2013-09-05 17:50:00,82.8,32.0,29.74,SSE,167,14.0,20.0,16,0.00,,,0.00,Wunderground v.1.15,2013-09-06 00:50:00,
2013-09-05 17:55:00,82.6,33.4,29.74,SSE,148,11.0,20.0,17,0.00,,,0.00,Wunderground v.1.15,2013-09-06 00:55:00,
2013-09-05 18:00:00,82.4,33.2,29.75,SE,130,17.0,17.0,17,0.00,,,0.00,Wunderground v.1.15,2013-09-06 01:00:00,
2013-09-05 18:05:00,82.2,33.0,29.75,SSE,154,10.0,17.0,17,0.00,,,0.00,Wunderground v.1.15,2013-09-06 01:05:00,
2013-09-05 18:10:00,81.8,34.1,29.75,SSE,164,10.0,14.0,18,0.00,,,0.00,Wunderground v.1.15,2013-09-06 01:10:00,
2013-09-05 18:15:00,81.6,31.0,29.76,SSE,147,14.0,20.0,16,0.00,,,0.00,Wunderground v.1.15,2013-09-06 01:15:00,
2013-09-05 18:21:00,81.2,33.6,29.76,SE,131,10.0,17.0,18,0.00,,,0.00,Wunderground v.1.15,2013-09-06 01:21:00,
2013-09-05 18:26:00,80.9,33.4,29.76,SE,145,9.0,17.0,18,0.00,,,0.00,Wunderground v.1.15,2013-09-06 01:26:00,
2013-09-05 18:31:00,80.7,34.6,29.76,SSE,164,9.0,16.0,19,0.00,,,0.00,Wunderground v.1.15,2013-09-06 01:31:00,
2013-09-05 18:36:00,80.3,34.3,29.76,SSE,154,9.0,17.0,19,0.00,,,0.00,Wunderground v.1.15,2013-09-06 01:36:00,
2013-09-05 18:41:00,79.9,33.9,29.76,SE,141,9.0,15.0,19,0.00,,,0.00,Wunderground v.1.15,2013-09-06 01:41:00,
2013-09-05 18:46:00,79.6,35.0,29.77,South,176,9.0,23.0,20,0.00,,,0.00,Wunderground v.1.15,2013-09-06 01:46:00,
2013-09-05 18:51:00,79.0,34.5,29.77,SE,145,8.0,13.0,20,0.00,,,0.00,Wunderground v.1.15,2013-09-06 01:51:00,
2013-09-05 18:56:00,78.5,34.1,29.77,SE,137,11.0,17.0,20,0.00,,,0.00,Wunderground v.1.15,2013-09-06 01:56:00,
2013-09-05 19:01:00,77.7,35.8,29.78,SSE,168,11.0,16.0,22,0.00,,,0.00,Wunderground v.1.15,2013-09-06 02:01:00,
2013-09-05 19:06:00,76.7,35.0,29.78,SSE,147,6.0,18.0,22,0.00,,,0.00,Wunderground v.1.15,2013-09-06 02:06:00,
2013-09-05 19:11:00,76.1,35.6,29.78,SSE,161,7.0,17.0,23,0.00,,,0.00,Wunderground v.1.15,2013-09-06 02:11:00,
2013-09-05 19:16:00,75.8,36.4,29.77,SSE,160,7.0,20.0,24,0.00,,,0.00,Wunderground v.1.15,2013-09-06 02:16:00,
2013-09-05 19:22:00,75.3,37.0,29.77,SE,137,6.0,18.0,25,0.00,,,0.00,Wunderground v.1.15,2013-09-06 02:22:00,
2013-09-05 19:27:00,75.1,36.9,29.77,SE,133,13.0,20.0,25,0.00,,,0.00,Wunderground v.1.15,2013-09-06 02:27:00,
2013-09-05 19:32:00,74.9,37.7,29.78,SSE,164,7.0,14.0,26,0.00,,,0.00,Wunderground v.1.15,2013-09-06 02:32:00,
2013-09-05 19:37:00,74.6,37.4,29.78,South,189,8.0,14.0,26,0.00,,,0.00,Wunderground v.1.15,2013-09-06 02:37:00,
2013-09-05 19:42:00,74.4,38.2,29.78,SSE,152,14.0,15.0,27,0.00,,,0.00,Wunderground v.1.15,2013-09-06 02:42:00,
2013-09-05 19:47:00,74.2,38.1,29.78,SSE,154,7.0,18.0,27,0.00,,,0.00,Wunderground v.1.15,2013-09-06 02:47:00,
2013-09-05 19:52:00,73.9,38.7,29.78,SSE,160,7.0,16.0,28,0.00,,,0.00,Wunderground v.1.15,2013-09-06 02:52:00,
2013-09-05 19:57:00,73.7,38.6,29.78,ESE,117,6.0,17.0,28,0.00,,,0.00,Wunderground v.1.15,2013-09-06 02:57:00,
2013-09-05 20:02:00,73.5,39.3,29.79,SSE,158,9.0,15.0,29,0.00,,,0.00,Wunderground v.1.15,2013-09-06 03:02:00,
2013-09-05 20:07:00,73.3,39.1,29.79,South,179,14.0,15.0,29,0.00,,,0.00,Wunderground v.1.15,2013-09-06 03:07:00,
2013-09-05 20:12:00,73.2,39.0,29.79,SSE,152,9.0,17.0,29,0.00,,,0.00,Wunderground v.1.15,2013-09-06 03:12:00,
2013-09-05 20:17:00,73.0,39.7,29.77,SSE,167,6.0,17.0,30,0.00,,,0.00,Wunderground v.1.15,2013-09-06 03:17:00,
2013-09-05 20:22:00,72.8,39.5,29.77,SSE,165,14.0,15.0,30,0.00,,,0.00,Wunderground v.1.15,2013-09-06 03:22:00,
2013-09-05 20:28:00,72.7,40.3,29.77,SSE,147,11.0,15.0,31,0.00,,,0.00,Wunderground v.1.15,2013-09-06 03:28:00,
2013-09-05 20:33:00,72.5,41.0,29.77,East,89,13.0,13.0,32,0.00,,,0.00,Wunderground v.1.15,2013-09-06 03:33:00,
2013-09-05 20:39:00,72.3,40.8,29.77,SSE,148,16.0,16.0,32,0.00,,,0.00,Wunderground v.1.15,2013-09-06 03:39:00,
2013-09-05 20:44:00,72.1,40.6,29.77,SSE,160,8.0,18.0,32,0.00,,,0.00,Wunderground v.1.15,2013-09-06 03:44:00,
2013-09-05 20:49:00,72.1,41.4,29.77,SE,140,8.0,18.0,33,0.00,,,0.00,Wunderground v.1.15,2013-09-06 03:49:00,
2013-09-05 20:54:00,72.0,42.1,29.77,SSE,161,7.0,14.0,34,0.00,,,0.00,Wunderground v.1.15,2013-09-06 03:54:00,
2013-09-05 20:59:00,71.8,42.7,29.77,East,92,15.0,15.0,35,0.00,,,0.00,Wunderground v.1.15,2013-09-06 03:59:00,
2013-09-05 21:01:00,71.6,42.5,29.78,ESE,106,8.0,11.0,35,0.00,,,0.00,Wunderground v.1.15,2013-09-06 04:01:00,
2013-09-05 21:02:00,71.6,42.5,29.78,SE,131,7.0,11.0,35,0.00,,,0.00,Wunderground v.1.15,2013-09-06 04:02:00,
2013-09-05 21:07:00,71.3,43.0,29.78,ESE,110,10.0,15.0,36,0.00,,,0.00,Wunderground v.1.15,2013-09-06 04:07:00,
2013-09-05 21:12:00,71.1,43.5,29.78,SSE,155,11.0,14.0,37,0.00,,,0.00,Wunderground v.1.15,2013-09-06 04:12:00,
2013-09-05 21:18:00,70.9,44.0,29.77,ESE,110,11.0,16.0,38,0.00,,,0.00,Wunderground v.1.15,2013-09-06 04:18:00,
2013-09-05 21:24:00,70.9,44.0,29.77,SSE,147,13.0,15.0,38,0.00,,,0.00,Wunderground v.1.15,2013-09-06 04:24:00,
2013-09-05 21:29:00,70.8,43.9,29.77,ESE,119,9.0,15.0,38,0.00,,,0.00,Wunderground v.1.15,2013-09-06 04:29:00,
2013-09-05 21:34:00,70.8,43.9,29.77,East,100,9.0,15.0,38,0.00,,,0.00,Wunderground v.1.15,2013-09-06 04:34:00,
2013-09-05 21:39:00,70.6,44.4,29.77,SE,131,13.0,17.0,39,0.00,,,0.00,Wunderground v.1.15,2013-09-06 04:39:00,
2013-09-05 21:44:00,70.6,44.4,29.77,ESE,114,8.0,14.0,39,0.00,,,0.00,Wunderground v.1.15,2013-09-06 04:44:00,
2013-09-05 21:49:00,70.4,44.3,29.78,SE,126,8.0,15.0,39,0.00,,,0.00,Wunderground v.1.15,2013-09-06 04:49:00,
2013-09-05 21:54:00,70.3,44.2,29.78,SSE,152,10.0,11.0,39,0.00,,,0.00,Wunderground v.1.15,2013-09-06 04:54:00,
2013-09-05 21:59:00,70.1,44.6,29.78,ESE,120,8.0,15.0,40,0.00,,,0.00,Wunderground v.1.15,2013-09-06 04:59:00,
2013-09-05 22:04:00,70.1,44.6,29.77,SE,136,11.0,14.0,40,0.00,,,0.00,Wunderground v.1.15,2013-09-06 05:04:00,
2013-09-05 22:09:00,70.1,44.6,29.77,SE,138,9.0,16.0,40,0.00,,,0.00,Wunderground v.1.15,2013-09-06 05:09:00,
2013-09-05 22:14:00,70.1,44.6,29.77,SE,144,11.0,16.0,40,0.00,,,0.00,Wunderground v.1.15,2013-09-06 05:14:00,
2013-09-05 22:19:00,70.1,44.0,29.76,SSE,167,6.0,18.0,39,0.00,,,0.00,Wunderground v.1.15,2013-09-06 05:19:00,
2013-09-05 22:24:00,70.3,44.2,29.76,ESE,121,11.0,17.0,39,0.00,,,0.00,Wunderground v.1.15,2013-09-06 05:24:00,
2013-09-05 22:29:00,70.3,44.2,29.77,SE,143,8.0,17.0,39,0.00,,,0.00,Wunderground v.1.15,2013-09-06 05:29:00,
2013-09-05 22:34:00,70.3,44.2,29.77,SSE,151,8.0,15.0,39,0.00,,,0.00,Wunderground v.1.15,2013-09-06 05:34:00,
2013-09-05 22:39:00,70.3,44.2,29.77,SSW,202,10.0,16.0,39,0.00,,,0.00,Wunderground v.1.15,2013-09-06 05:39:00,
2013-09-05 22:44:00,70.3,44.2,29.77,South,169,8.0,17.0,39,0.00,,,0.00,Wunderground v.1.15,2013-09-06 05:44:00,
2013-09-05 22:49:00,70.1,44.0,29.77,SSE,164,6.0,17.0,39,0.00,,,0.00,Wunderground v.1.15,2013-09-06 05:49:00,
2013-09-05 22:54:00,70.1,44.0,29.77,South,169,6.0,8.0,39,0.00,,,0.00,Wunderground v.1.15,2013-09-06 05:54:00,
2013-09-05 22:59:00,69.9,43.8,29.78,SSE,164,4.0,13.0,39,0.00,,,0.00,Wunderground v.1.15,2013-09-06 05:59:00,
2013-09-05 23:04:00,69.9,43.8,29.78,SSE,147,6.0,10.0,39,0.00,,,0.00,Wunderground v.1.15,2013-09-06 06:04:00,
2013-09-05 23:09:00,69.8,43.7,29.78,SSE,147,4.0,10.0,39,0.00,,,0.00,Wunderground v.1.15,2013-09-06 06:09:00,
2013-09-05 23:14:00,69.6,43.5,29.77,SSE,152,4.0,17.0,39,0.00,,,0.00,Wunderground v.1.15,2013-09-06 06:14:00,
2013-09-05 23:19:00,69.6,43.5,29.77,SSE,152,8.0,17.0,39,0.00,,,0.00,Wunderground v.1.15,2013-09-06 06:19:00,
2013-09-05 23:24:00,69.6,43.5,29.77,SSW,202,6.0,9.0,39,0.00,,,0.00,Wunderground v.1.15,2013-09-06 06:24:00,
2013-09-05 23:29:00,69.6,43.5,29.77,South,171,14.0,14.0,39,0.00,,,0.00,Wunderground v.1.15,2013-09-06 06:29:00,
2013-09-05 23:34:00,69.8,43.0,29.77,SSE,164,7.0,14.0,38,0.00,,,0.00,Wunderground v.1.15,2013-09-06 06:34:00,
2013-09-05 23:39:00,69.8,43.0,29.77,South,184,6.0,14.0,38,0.00,,,0.00,Wunderground v.1.15,2013-09-06 06:39:00,
2013-09-05 23:44:00,69.8,42.3,29.77,SSE,167,8.0,14.0,37,0.00,,,0.00,Wunderground v.1.15,2013-09-06 06:44:00,
2013-09-05 23:49:00,69.8,42.3,29.77,SE,137,8.0,14.0,37,0.00,,,0.00,Wunderground v.1.15,2013-09-06 06:49:00,
2013-09-05 23:54:00,69.8,42.3,29.77,SW,217,1.0,10.0,37,0.00,,,0.00,Wunderground v.1.15,2013-09-06 06:54:00,
2013-09-05 23:59:00,69.8,42.3,29.78,South,188,9.0,10.0,37,0.00,,,0.00,Wunderground v.1.15,2013-09-06 06:59:00,